Change the Weather History Date:

Thursday, December 22, 2011

  Actual Average (KHVN) Record (KHVN)
Temperature  
Mean Temperature 48 °F -  
Max Temperature 55 °F 39 °F 59 °F (1998)
Min Temperature 42 °F 27 °F 4 °F (1989)
Degree Days  
Heating Degree Days 16    
Moisture  
Dew Point 40 °F    
Average Humidity 69    
Maximum Humidity 85    
Minimum Humidity 49    
Precipitation  
Precipitation 0.00 in - - ()
Sea Level Pressure  
Sea Level Pressure 29.98 in    
Wind  
Wind Speed 5 mph (WNW)    
Max Wind Speed 12 mph    
Max Gust Speed 18 mph    
Visibility 10 miles    
Events      
Averages and records for this station are not official NWS values.
T = Trace of Precipitation, MM = Missing Value Source: NWS Daily Summary

Daily Weather History Graph

Daily Weather History Graph

Search for Another Location

Airport or City:

Trip Planner

Search our weather history database for the weather conditions in past years. The results will help you decide how hot, cold, wet, or windy it might be!

Date:

Astronomy

Dec. 22, 2011 Rise Set
Actual Time 7:14 AM EST 4:24 PM EST
Civil Twilight 6:43 AM EST 4:56 PM EST
Nautical Twilight 6:08 AM EST 5:31 PM EST
Astronomical Twilight 5:34 AM EST 6:05 PM EST
Moon 4:54 AM EST (12/22) 2:32 PM EST (12/22)
Length of Visible Light 10h 13m
Length of Day
9h 10m
Waning Crescent, 6% of the Moon is Illuminated
Dec 22
Waning Crescent
Dec 24
New
Jan 1
First Quarter
Jan 9
Full
Jan 16
Last Quarter

Hourly Weather History & Observations

Time (EST) Temp. Dew Point Humidity Pressure Visibility Wind Dir Wind Speed Gust Speed Precip Events Conditions
12:53 AM 54.0 °F 48.0 °F 80% 29.71 in 10.0 mi Variable 6.9 mph - 0.00 in   Clear
1:53 AM 55.0 °F 44.1 °F 67% 29.75 in 10.0 mi West 11.5 mph 18.4 mph N/A   Clear
2:53 AM 54.0 °F 43.0 °F 66% 29.80 in 10.0 mi NNW 5.8 mph - N/A   Clear
3:53 AM 52.0 °F 43.0 °F 71% 29.85 in 10.0 mi West 5.8 mph - N/A   Scattered Clouds
4:53 AM 50.0 °F 41.0 °F 71% 29.86 in 10.0 mi WNW 6.9 mph - N/A   Clear
5:53 AM 50.0 °F 41.0 °F 71% 29.91 in 10.0 mi West 4.6 mph - N/A   Clear
6:53 AM 50.0 °F 41.0 °F 71% 29.97 in 10.0 mi West 4.6 mph - N/A   Clear
7:53 AM 46.0 °F 39.9 °F 79% 29.99 in 10.0 mi Calm Calm - N/A   Clear
8:53 AM 51.1 °F 41.0 °F 68% 30.02 in 10.0 mi WNW 8.1 mph - N/A   Clear
9:53 AM 53.1 °F 39.9 °F 61% 30.08 in 10.0 mi NW 5.8 mph - N/A   Mostly Cloudy
11:53 AM 54.0 °F 37.9 °F 55% 30.01 in 10.0 mi Calm Calm - N/A   Partly Cloudy
12:53 PM 55.9 °F 37.0 °F 49% 30.03 in 10.0 mi WNW 9.2 mph 18.4 mph N/A   Mostly Cloudy
1:53 PM 55.0 °F 36.0 °F 49% 30.03 in 10.0 mi NNW 6.9 mph - N/A   Overcast
2:53 PM 54.0 °F 37.0 °F 53% 30.07 in 10.0 mi WNW 4.6 mph - N/A   Overcast
3:53 PM 53.1 °F 37.0 °F 55% 30.07 in 10.0 mi Calm Calm - N/A   Overcast
4:53 PM 52.0 °F 37.0 °F 57% 30.09 in 10.0 mi Calm Calm - N/A   Overcast
5:53 PM 48.0 °F 39.9 °F 74% 30.10 in 10.0 mi South 3.5 mph - N/A   Overcast
6:53 PM 46.0 °F 39.0 °F 76% 30.07 in 10.0 mi Calm Calm - N/A   Partly Cloudy
7:53 PM 45.0 °F 39.0 °F 80% 30.07 in 10.0 mi Calm Calm - N/A   Mostly Cloudy
8:53 PM 42.1 °F 37.9 °F 85% 30.06 in 10.0 mi Calm Calm - N/A   Overcast
9:53 PM 43.0 °F 37.9 °F 82% 30.05 in 10.0 mi Calm Calm - N/A   Mostly Cloudy
10:53 PM 44.1 °F 39.0 °F 82% 30.04 in 10.0 mi Calm Calm - N/A   Overcast
11:53 PM 44.1 °F 39.0 °F 82% 30.01 in 10.0 mi Calm Calm - N/A   Overcast